Location: Newark
(55.8333°N, 13.3000°E)
Time: 06:55:01
(UTC+00:00)

Envisat - Visible Passes

Search period start: 22 November 2019 00:00
Search period end: 02 December 2019 00:00
Orbit: 764 x 766 km, 98.1° (Epoch: 21 November)

Date Brightness Start Highest point End Pass type
(mag) Time Alt. Az. Time Alt. Az. Time Alt. Az.
22 Nov 4.1 05:46:38 10° NNE 05:51:36 50° E 05:56:32 10° S visible
22 Nov 3.8 15:30:50 10° ESE 15:35:09 29° ENE 15:39:28 10° N visible
22 Nov 3.5 17:08:50 10° S 17:13:53 63° WSW 17:18:57 10° NNW visible
22 Nov 6.1 18:51:55 10° WSW 18:53:58 12° W 18:56:02 10° WNW visible
23 Nov 5.3 05:10:12 10° NNE 05:14:33 27° E 05:18:52 10° SSE visible
23 Nov 2.9 16:32:00 10° SSE 16:37:04 73° ENE 16:42:10 10° NNW visible
23 Nov 5.3 18:12:39 10° SW 18:16:39 23° W 18:20:39 10° NW visible
24 Nov 6.0 04:34:21 10° NE 04:37:17 15° E 04:40:11 10° ESE visible
24 Nov 3.3 06:12:04 10° NNE 06:17:12 77° ESE 06:22:17 10° S visible
24 Nov 3.4 15:55:42 10° SE 16:00:27 41° ENE 16:05:12 10° N visible
24 Nov 4.3 17:34:43 10° SSW 17:39:31 41° W 17:44:20 10° NNW visible
25 Nov 4.5 05:35:26 10° NNE 05:40:16 41° E 05:45:04 10° SSE visible
25 Nov 4.0 15:19:55 10° ESE 15:23:58 25° NE 15:28:03 10° N visible
25 Nov 3.2 16:57:29 10° S 17:02:35 76° WSW 17:07:41 10° NNW visible
25 Nov 5.9 18:39:39 10° WSW 18:42:30 15° W 18:45:22 10° NW visible
26 Nov 5.5 04:59:06 10° NE 05:03:09 23° E 05:07:09 10° SE visible
26 Nov 3.0 16:20:49 10° SSE 16:25:49 61° ENE 16:30:51 10° N visible
26 Nov 5.0 18:00:57 10° SSW 18:05:14 27° W 18:09:34 10° NNW visible
27 Nov 6.2 04:23:40 10° ENE 04:25:49 12° E 04:27:56 10° ESE visible
27 Nov 3.6 06:00:49 10° NNE 06:05:54 64° ESE 06:10:57 10° S visible
27 Nov 3.6 15:44:39 10° SE 15:49:14 35° ENE 15:53:50 10° N visible
27 Nov 3.9 17:23:14 10° S 17:28:10 49° W 17:33:08 10° NNW visible
28 Nov 4.8 05:24:14 10° NNE 05:28:54 35° E 05:33:32 10° SSE visible
28 Nov 3.0 16:46:12 10° SSE 16:51:17 89° WSW 16:56:25 10° NNW visible
28 Nov 5.7 18:27:39 10° SW 18:31:04 18° W 18:34:30 10° NW visible
29 Nov 5.8 04:48:05 10° NE 04:51:44 19° E 04:55:21 10° SE visible
29 Nov 3.1 16:09:40 10° SE 16:14:35 52° ENE 16:19:31 10° N visible
29 Nov 4.7 17:49:19 10° SSW 17:53:51 32° W 17:58:25 10° NNW visible
30 Nov 6.4 04:13:53 10° ENE 04:14:20 10° E 04:14:48 10° E visible
30 Nov 3.9 05:49:34 10° NNE 05:54:34 53° E 05:59:33 10° S visible
30 Nov 3.7 15:33:40 10° ESE 15:38:03 30° ENE 15:42:27 10° N visible
30 Nov 3.6 17:11:49 10° S 17:16:50 59° WSW 17:21:53 10° NNW visible
30 Nov 6.2 18:55:23 10° W 18:57:00 11° W 18:58:36 10° WNW visible
01 Dec 5.1 05:13:05 10° NNE 05:17:32 29° E 05:21:57 10° SSE visible
01 Dec 2.9 16:34:56 10° SSE 16:40:00 78° ENE 16:45:07 10° NNW visible
01 Dec 5.4 18:15:47 10° SW 18:19:38 21° W 18:23:30 10° NW visible
